View Data : List Evapotranspiration (ETo ) Reports


 
Search Evapotranspiration Reports
Station Fields:
Location:
Date Range:
Start Date:   End Date:
Searched: Report date on 7/23/2017.
Showing 1 - 50 of 103 Records. <Back  Page   Next>
DateTimeStation NumberStation NameGaugeReadingRefill LevelEvap AmtView
7/23/2017  12:00 AM  MN-AA-5  East Bethel 3.1 NE 7.83  0.13   
7/23/2017  5:00 AM  NY-CQ-22  Fredonia 0.8 WNW 5.70  0.08   
7/23/2017  5:12 AM  WI-MC-4  Two Rivers 1.4 N 2.32  0.11   
7/23/2017  5:30 AM  IN-TN-1  Atlanta 4.4 W 0.60  0.00   
7/23/2017  5:30 AM  TX-KN-4  Boerne 5.1 NNW 5.04  0.28   
7/23/2017  6:00 AM  CA-SJ-5  Lodi 1.0 NNW 3.70  0.30   
7/23/2017  6:00 AM  MD-MG-54  Germantown 4.6 NNE 5.33  0.12   
7/23/2017  6:00 AM  NH-CH-21  Keene 2.0 SE 6.71  0.10   
7/23/2017  6:00 AM  NH-CS-7  Lancaster 0.5 N 7.90  0.30   
7/23/2017  6:00 AM  NM-TS-33  Arroyo Seco 1.4 E 2.90  0.10   
7/23/2017  6:00 AM  PA-MT-16  North Wales 1.3 WSW 0.02  0.00   
7/23/2017  6:00 AM  TN-MA-3  Jasper 1.7 N 6.48  0.26   
7/23/2017  6:00 AM  TX-ER-4  Stephenville 2.6 NNW 1.20  0.25   
7/23/2017  6:00 AM  VA-FR-26  Ferrum 2.7 SW 0.58  0.17   
7/23/2017  6:00 AM  WY-PK-7  Cody 2.4 WSW 0.42  0.00   
7/23/2017  6:30 AM  IL-WN-2  Roscoe 1.6 ESE 8.55  0.12   
7/23/2017  6:30 AM  IN-PT-12  Valparaiso 4.3 SW 0.44  0.04   
7/23/2017  6:30 AM  IA-LN-7  Central City 6.7 W 1.20  0.09   
7/23/2017  6:30 AM  OK-PY-9  Glencoe 3.0 W 7.10  0.59   
7/23/2017  6:46 AM  TN-PT-3  Byrdstown 2.8 SSW 5.28  0.86   
7/23/2017  6:55 AM  WA-SJ-28  Lopez Island 3.9 NNE 7.94  0.09   
7/23/2017  7:00 AM  AZ-PN-50  Saddlebrooke 1.5 SW 4.10  0.14   
7/23/2017  7:00 AM  CA-HM-5  Mckinleyville 7.3 ESE 4.24  0.12   
7/23/2017  7:00 AM  CA-SD-12  Poway 3.2NE 3.52  0.18   
7/23/2017  7:00 AM  CA-SD-132  Descanso 3.7N 2.05  0.27   
7/23/2017  7:00 AM  CA-SN-100  Glen Ellen 1.9 NNW 3.89  0.19   
7/23/2017  7:00 AM  CA-TH-11  Red Bluff 5.1 NNW 0.80  0.20   
7/23/2017  7:00 AM  CO-BO-57  Nederland 5.8 E 4.90  0.16   
7/23/2017  7:00 AM  CO-EP-24  Black Forest 2.1 SSE 10.43  0.13   
7/23/2017  7:00 AM  CO-GN-18  Crested Butte 6.2 N 2.67  0.11   
7/23/2017  7:00 AM  CO-ME-79  Grand Junction 3.9 WSW 5.05  0.25   
7/23/2017  7:00 AM  FL-MR-66  The Villages 3.7 NNW 2.99  0.04   
7/23/2017  7:00 AM  GA-FY-28  Fayetteville 2.1 NNE 1.61  0.09   
7/23/2017  7:00 AM  IL-GY-1  Carbon Hill 3.1 N 2.52  0.12   
7/23/2017  7:00 AM  IL-KN-67  St. Charles 6.0 NW 2.25  0.10   
7/23/2017  7:00 AM  IL-WF-14  El Paso 5.2 NNW 8.52  0.04   
7/23/2017  7:00 AM  IN-AL-5  Huntertown 2.6 ESE 3.98  0.11   
7/23/2017  7:00 AM  IN-BN-53  Zionsville 4.3 NNW 4.17  0.04   
7/23/2017  7:00 AM  IN-HR-5  Milltown 5.7 SSE 4.33  0.33   
7/23/2017  7:00 AM  IN-MR-13  Speedway 6.2 SSW 2.95  0.02   
7/23/2017  7:00 AM  IN-OW-9  Spencer 7.0 S 3.67  0.14   
7/23/2017  7:00 AM  IA-TY-2  New Market 4.7 N 3.96  0.18   
7/23/2017  7:00 AM  KS-MP-42  McPherson 2.9 E 3.73  0.33   
7/23/2017  7:00 AM  KS-SG-111  Wichita 5.9 WSW 8.11  0.30   
7/23/2017  7:00 AM  KY-ME-8  Harrodsburg 10.8 NW 4.68  0.16   
7/23/2017  7:00 AM  ME-CM-3  New Gloucester 3.0 SE 4.03  0.11   
7/23/2017  7:00 AM  ME-LN-1  Newcastle 2.1 SW 8.06  0.18   
7/23/2017  7:00 AM  MD-HR-23  Norrisville 0.6 WSW 2.78  0.13   
7/23/2017  7:00 AM  MD-PG-49  Fort Washington 1.6 WSW 3.90  0.15   
7/23/2017  7:00 AM  MA-BR-23  Attleboro 0.9 ENE 1.72  0.12